Flag for Germany Weather past 2 weeks in Friesoythe, Lower Saxony, Germany

Now
34 °F

Chilly.


Feels Like: 28 °F
Forecast: 36 / 47 °F
Wind: 7 mph from Southwest

Location: Meppen-Mil

Current Time: Apr 2, 2015 at 4:24:57 AM

Latest Report: Apr 2, 2015 at 3:20 AM


Visibility: 3 mi

Pressure: 29.80 "Hg

Humidity: 93%

Dew point: 32 °F

Location of FriesoytheLocation

Historic Weather in Friesoythe — Graph

°F

Friesoythe temperature yesterday

Maximum temperature yesterday: 46 °F (at 1:20 PM)
Minimum temperature yesterday: 37 °F (at 3:20 AM)
Average temperature yesterday: 40 °F

Past Weeks' High & Low Weather Summary

 TemperatureHumidityPressure
High63 °F (Mar 18, 3:20 PM)100% (Mar 18, 3:20 AM)30.39 "Hg (Mar 18, 3:20 AM)
Low25 °F (Mar 23, 6:20 AM)41% (Mar 24, 4:20 PM)29.03 "Hg (Mar 29, 7:20 PM)
Average42 °F78%29.89 "Hg
* Reported Mar 18 1:20 AM — Apr 2 2:20 AM, Friesoythe, Weather by CustomWeather, © 2015

Note: Actual official high and low records may vary slightly from our data, if they occured in-between our weather recording intervals... More about our weather records

Advertising

Friesoythe weather history for previous 24 hours

 ConditionsComfort  
Time TempWeatherWind HumidityBarometerVisibility
2:20 AM
Thu, Apr 2
39 °FChilly.7 mph87%29.80 "Hg3 mi
1:20 AM39 °FChilly.17 mph87%29.83 "Hg1 mi
12:20 AM41 °FQuite cool.12 mph87%29.83 "Hg2 mi
11:20 PM
Wed, Apr 1
43 °FQuite cool.12 mph81%29.86 "Hg3 mi
10:20 PM41 °FQuite cool.14 mph81%29.89 "Hg3 mi
9:20 PM41 °FQuite cool.9 mph76%29.92 "Hg2 mi
8:20 PM39 °FChilly.7 mph75%29.95 "Hg4 mi
7:20 PM41 °FQuite cool.9 mph70%29.95 "Hg4 mi
6:20 PM41 °FQuite cool.12 mph76%29.95 "Hg4 mi
5:20 PM39 °FChilly.15 mph87%29.95 "Hg3 mi
4:20 PM41 °FQuite cool.12 mph76%29.95 "Hg4 mi
3:20 PM41 °FQuite cool.9 mph81%29.95 "Hg3 mi
2:20 PM41 °FSnow flurries. Partly sunny.16 mph70%29.95 "HgN/A
1:20 PM46 °FScattered showers. Passing clouds.14 mph66%29.92 "HgN/A
12:20 PM41 °FScattered showers. Broken clouds.12 mph76%29.92 "HgN/A
11:20 AM37 °FSprinkles. Scattered clouds.12 mph87%29.92 "HgN/A
10:20 AM43 °FSprinkles. Partly sunny.14 mph71%29.89 "Hg4 mi
9:20 AM41 °FScattered showers. Scattered clouds.10 mph81%29.86 "HgN/A
8:20 AM37 °FScattered showers. Passing clouds.10 mph87%29.83 "HgN/A
7:20 AM37 °FScattered showers. Passing clouds.9 mph87%29.80 "HgN/A
6:20 AM37 °FChilly.14 mph87%29.77 "Hg2 mi
5:20 AM37 °FChilly.10 mph87%29.74 "Hg3 mi
4:20 AM37 °FChilly.12 mph81%29.71 "Hg3 mi
Weather by CustomWeather, © 2015

See weather overviewHow to use our weather pages